Location: Newark
(58.8333°N, 23.5833°E)
Time: 16:39:50
(UTC+00:00)

Vanguard 2 - Pass Details

Date: 01 December 2019
Orbit: 553 x 2938 km, 32.9° (Epoch: 10 December)

Event Time Altitude Azimuth Distance (km) Brightness Sun altitude
Exits shadow 01:19:16 - 181° (S) 6,187 11.9 -40.5°
Reaches altitude 10° 01:24:05 10° 167° (SSE) 5,659 11.8 -40.0°
Maximum altitude 01:29:07 12° 149° (SSE) 5,315 11.8 -39.4°
Drops below altitude 10° 01:33:50 10° 131° (SE) 5,254 12.0 -38.8°
Sets 01:41:21 0° 105° (ESE) 5,750 12.6 -37.9°
